| time (UTC) | temp C | wind direction | speed KPH | gust KPH | rain 1hr cm | rain 24hr cm | rain mn cm | humidity % | barometer mb |
| 20260903152046 | 22 | 263 | 0.0 | 1.6 | 0.00 | 0.74 | 0.74 | 53 | 1013.8 |
| 20260903151049 | 22 | 255 | 0.0 | 0.0 | 0.00 | 0.74 | 0.74 | 53 | 1013.9 |
| 20260903150100 | 22 | 208 | 0.0 | 0.0 | 0.00 | 0.74 | 0.74 | 53 | 1014.1 |
| 20260903145049 | 22 | 208 | 0.0 | 0.0 | 0.00 | 0.74 | 0.74 | 54 | 1014.2 |
| 20260903144548 | 22 | 208 | 0.0 | 0.0 | 0.00 | 0.74 | 0.74 | 54 | 1014.2 |
| 20260903144203 | 21 | 208 | 0.0 | 1.6 | 0.00 | 0.74 | 0.74 | 54 | 1014.4 |
| 20260903142042 | 21 | 269 | 0.0 | 1.6 | 0.00 | 0.74 | 0.74 | 55 | 1014.8 |
| 20260903141041 | 21 | 156 | 0.0 | 0.0 | 0.03 | 0.74 | 0.74 | 55 | 1014.9 |
| 20260903140054 | 21 | 156 | 0.0 | 1.6 | 0.03 | 0.74 | 0.74 | 55 | 1014.9 |
| 20260903135041 | 21 | 153 | 0.0 | 1.6 | 0.03 | 0.74 | 0.74 | 55 | 1014.8 |
| 20260903134041 | 20 | 159 | 0.0 | 1.6 | 0.08 | 0.74 | 0.74 | 56 | 1015.0 |
| 20260903133041 | 20 | 159 | 0.0 | 1.6 | 0.10 | 0.74 | 0.74 | 56 | 1014.9 |
| 20260903132041 | 20 | 161 | 0.0 | 1.6 | 0.10 | 0.74 | 0.74 | 56 | 1014.8 |
| 20260903131041 | 20 | 161 | 0.0 | 1.6 | 0.10 | 0.71 | 0.71 | 56 | 1014.9 |
| 20260903130053 | 20 | 162 | 0.0 | 1.6 | 0.10 | 0.71 | 0.71 | 56 | 1014.8 |
| 20260903125036 | 20 | 170 | 0.0 | 1.6 | 0.15 | 0.71 | 0.71 | 56 | 1015.0 |
| 20260903124537 | 19 | 172 | 0.0 | 1.6 | 0.18 | 0.66 | 0.66 | 56 | 1015.2 |
| 20260903123035 | 19 | 163 | 0.0 | 1.6 | 0.15 | 0.64 | 0.64 | 56 | 1015.4 |
| 20260903122036 | 19 | 167 | 0.0 | 1.6 | 0.15 | 0.64 | 0.64 | 57 | 1015.4 |
| 20260903121035 | 19 | 166 | 0.0 | 1.6 | 0.13 | 0.61 | 0.61 | 57 | 1015.5 |
| 20260903120035 | 19 | 159 | 0.0 | 1.6 | 0.13 | 0.61 | 0.61 | 57 | 1015.6 |
| 20260903115035 | 19 | 149 | 0.0 | 1.6 | 0.08 | 0.56 | 0.58 | 57 | 1015.8 |
| 20260903114047 | 19 | 142 | 0.0 | 1.6 | 0.00 | 0.48 | 0.48 | 57 | 1015.7 |
| 20260903113036 | 19 | 145 | 0.0 | 1.6 | 0.00 | 0.48 | 0.48 | 57 | 1015.9 |
| 20260903112042 | 18 | 144 | 0.0 | 1.6 | 0.03 | 0.48 | 0.48 | 57 | 1016.0 |
| 20260903111030 | 18 | 139 | 0.0 | 1.6 | 0.10 | 0.48 | 0.48 | 57 | 1016.1 |
| 20260903110030 | 18 | 142 | 0.0 | 1.6 | 0.28 | 0.48 | 0.48 | 57 | 1016.1 |
| 20260903105043 | 18 | 143 | 0.0 | 1.6 | 0.36 | 0.48 | 0.48 | 58 | 1016.0 |
| 20260903104029 | 18 | 145 | 0.0 | 1.6 | 0.41 | 0.48 | 0.48 | 58 | 1015.8 |
| 20260903103030 | 18 | 142 | 0.0 | 1.6 | 0.43 | 0.48 | 0.48 | 58 | 1015.7 |
| 20260903102041 | 18 | 125 | 0.0 | 1.6 | 0.41 | 0.46 | 0.48 | 58 | 1015.8 |
| 20260903101028 | 18 | 136 | 0.0 | 1.6 | 0.33 | 0.38 | 0.41 | 58 | 1015.8 |
| 20260903100028 | 18 | 141 | 0.0 | 1.6 | 0.18 | 0.20 | 0.20 | 58 | 1016.0 |
| 20260903095023 | 18 | 139 | 0.0 | 1.6 | 0.10 | 0.13 | 0.13 | 58 | 1015.8 |
| 20260903094022 | 18 | 142 | 0.0 | 1.6 | 0.05 | 0.08 | 0.08 | 59 | 1015.9 |
| 20260903093024 | 18 | 142 | 0.0 | 0.0 | 0.03 | 0.05 | 0.08 | 59 | 1015.9 |
| 20260903092024 | 18 | 141 | 0.0 | 1.6 | 0.03 | 0.05 | 0.05 | 59 | 1015.9 |
| 20260903091024 | 18 | 141 | 0.0 | 1.6 | 0.03 | 0.03 | 0.03 | 59 | 1015.9 |
| 20260903090022 | 18 | 141 | 0.0 | 0.0 | 0.03 | 0.03 | 0.03 | 59 | 1016.3 |
| 20260903085524 | 18 | 141 | 0.0 | 0.0 | 0.03 | 0.03 | 0.03 | 59 | 1016.3 |
| 20260903084024 | 18 | 141 | 0.0 | 0.0 | 0.03 | 0.03 | 0.03 | 60 | 1016.4 |
| 20260903083524 | 17 | 141 | 0.0 | 0.0 | 0.03 | 0.03 | 0.03 | 61 | 1016.4 |
| 20260903082018 | 17 | 141 | 0.0 | 0.0 | 0.03 | 0.03 | 0.03 | 63 | 1016.5 |
| 20260903081018 | 17 | 141 | 0.0 | 0.0 | 0.00 | 0.00 | 0.00 | 65 | 1016.7 |
| 20260903080020 | 17 | 141 | 0.0 | 0.0 | 0.00 | 0.00 | 0.00 | 66 | 1017.0 |
| 20260903075018 | 17 | 143 | 0.0 | 0.0 | 0.00 | 0.00 | 0.00 | 66 | 1017.1 |
| 20260903074017 | 17 | 141 | 0.0 | 0.0 | 0.00 | 0.00 | 0.00 | 67 | 1017.0 |
| 20260903073017 | 17 | 141 | 0.0 | 0.0 | 0.00 | 0.00 | 0.00 | 67 | 1017.3 |
| 20260903072017 | 17 | 141 | 0.0 | 0.0 | 0.00 | 0.00 | 0.00 | 67 | 1017.3 |
| 20260903071017 | 17 | 141 | 0.0 | 0.0 | 0.00 | 0.00 | 0.00 | 67 | 1017.4 |
| 20260903070016 | 17 | 141 | 0.0 | 0.0 | 0.00 | 0.00 | 0.00 | 68 | 1017.7 |
| 20260903065011 | 16 | 141 | 0.0 | 1.6 | 0.00 | 0.00 | 0.00 | 67 | 1017.7 |
| 20260903064512 | 16 | 141 | 0.0 | 0.0 | 0.00 | 0.00 | 0.00 | 67 | 1018.0 |
| 20260903063011 | 16 | 141 | 0.0 | 0.0 | 0.00 | 0.00 | 0.00 | 67 | 1018.0 |
| 20260903062017 | 16 | 142 | 0.0 | 0.0 | 0.00 | 0.00 | 0.00 | 65 | 1018.5 |
| 20260903062011 | 16 | 141 | 0.0 | 1.6 | 0.00 | 0.00 | 0.00 | 66 | 1018.3 |
| 20260903060511 | 16 | 142 | 0.0 | 1.6 | 0.00 | 0.00 | 0.00 | 64 | 1018.6 |
| 20260903055011 | 16 | 142 | 0.0 | 0.0 | 0.00 | 0.00 | 0.00 | 64 | 1018.8 |
| 20260903054012 | 16 | 142 | 0.0 | 0.0 | 0.00 | 0.00 | 0.00 | 64 | 1018.7 |
| 20260903053512 | 15 | 142 | 0.0 | 0.0 | 0.00 | 0.00 | 0.00 | 63 | 1019.0 |
| 20260903052006 | 15 | 142 | 0.0 | 0.0 | 0.00 | 0.00 | 0.00 | 63 | 1019.3 |
| 20260903051519 | 15 | 142 | 0.0 | 0.0 | 0.00 | 0.00 | 0.00 | 63 | 1019.4 |
| 20260903050004 | 15 | 143 | 0.0 | 0.0 | 0.00 | 0.00 | 0.00 | 63 | 1019.5 |
| 20260903045006 | 15 | 142 | 0.0 | 0.0 | 0.00 | 0.00 | 0.00 | 63 | 1019.4 |
| 20260903044005 | 15 | 141 | 0.0 | 0.0 | 0.00 | 0.00 | 0.00 | 63 | 1019.2 |
| 20260903043005 | 15 | 141 | 0.0 | 0.0 | 0.00 | 0.00 | 0.00 | 63 | 1019.3 |
| 20260903042019 | 15 | 141 | 0.0 | 0.0 | 0.00 | 0.00 | 0.00 | 63 | 1019.3 |
| 20260903041006 | 15 | 141 | 0.0 | 0.0 | 0.00 | 0.00 | 0.00 | 63 | 1019.1 |
| 20260903040003 | 15 | 141 | 0.0 | 0.0 | 0.00 | 0.00 | 0.00 | 63 | 1019.4 |
| 20260903034958 | 15 | 141 | 0.0 | 0.0 | 0.00 | 0.00 | 0.00 | 64 | 1019.5 |
| 20260903033959 | 15 | 141 | 0.0 | 0.0 | 0.00 | 0.00 | 0.00 | 65 | 1019.4 |
| 20260903032957 | 15 | 141 | 0.0 | 0.0 | 0.00 | 0.00 | 0.00 | 65 | 1019.4 |
| 20260903031958 | 15 | 141 | 0.0 | 0.0 | 0.00 | 0.00 | 0.00 | 66 | 1019.7 |
| 20260903031458 | 15 | 141 | 0.0 | 0.0 | 0.00 | 0.00 | 0.00 | 66 | 1019.7 |
| 20260903025958 | 16 | 141 | 0.0 | 0.0 | 0.00 | 0.00 | 0.00 | 66 | 1019.8 |
| 20260903024957 | 16 | 142 | 0.0 | 0.0 | 0.00 | 0.00 | 0.00 | 67 | 1020.0 |
| 20260903024500 | 16 | 143 | 0.0 | 0.0 | 0.00 | 0.00 | 0.00 | 66 | 1019.9 |
| 20260903022957 | 16 | 141 | 0.0 | 0.0 | 0.00 | 0.00 | 0.00 | 68 | 1019.7 |
| 20260903021951 | 16 | 141 | 0.0 | 0.0 | 0.00 | 0.00 | 0.00 | 68 | 1019.8 |
| 20260903020950 | 16 | 141 | 0.0 | 0.0 | 0.00 | 0.00 | 0.00 | 69 | 1020.0 |
| 20260903015953 | 16 | 141 | 0.0 | 0.0 | 0.00 | 0.00 | 0.00 | 69 | 1019.9 |
| 20260903014950 | 16 | 141 | 0.0 | 0.0 | 0.00 | 0.00 | 0.00 | 69 | 1020.2 |
| 20260903013951 | 16 | 141 | 0.0 | 0.0 | 0.00 | 0.00 | 0.00 | 71 | 1020.2 |
| 20260903012952 | 16 | 141 | 0.0 | 0.0 | 0.00 | 0.00 | 0.00 | 72 | 1020.3 |
| 20260903011953 | 17 | 141 | 0.0 | 0.0 | 0.00 | 0.00 | 0.00 | 72 | 1020.3 |
| 20260903010952 | 17 | 141 | 0.0 | 0.0 | 0.00 | 0.00 | 0.00 | 73 | 1020.5 |
| 20260903005953 | 17 | 141 | 0.0 | 0.0 | 0.00 | 0.00 | 0.00 | 73 | 1020.6 |
| 20260903004949 | 17 | 141 | 0.0 | 0.0 | 0.00 | 0.00 | 0.00 | 75 | 1020.6 |
| 20260903004451 | 17 | 141 | 0.0 | 0.0 | 0.00 | 0.00 | 0.00 | 74 | 1020.4 |
| 20260903003451 | 17 | 141 | 0.0 | 0.0 | 0.00 | 0.00 | 0.00 | 75 | 1020.4 |
| 20260903001948 | 17 | 141 | 0.0 | 0.0 | 0.00 | 0.00 | 0.00 | 76 | 1020.7 |
| 20260903000948 | 18 | 141 | 0.0 | 0.0 | 0.00 | 0.00 | 0.00 | 76 | 1020.8 |
| 20260902235947 | 18 | 141 | 0.0 | 0.0 | 0.00 | 0.00 | 0.00 | 76 | 1020.7 |
| 20260902235450 | 18 | 141 | 0.0 | 0.0 | 0.00 | 0.00 | 0.00 | 76 | 1020.7 |
| 20260902233947 | 18 | 141 | 0.0 | 0.0 | 0.00 | 0.00 | 0.00 | 75 | 1020.8 |
| 20260902232945 | 18 | 141 | 0.0 | 0.0 | 0.00 | 0.00 | 0.00 | 74 | 1020.9 |
| 20260902232449 | 19 | 141 | 0.0 | 0.0 | 0.00 | 0.00 | 0.00 | 74 | 1020.9 |
| 20260902230954 | 20 | 141 | 0.0 | 0.0 | 0.00 | 0.00 | 0.00 | 73 | 1021.0 |
| 20260902230948 | 19 | 141 | 0.0 | 0.0 | 0.00 | 0.00 | 0.00 | 74 | 1020.8 |
| 20260902224947 | 20 | 141 | 0.0 | 0.0 | 0.00 | 0.00 | 0.00 | 72 | 1021.2 |
| 20260902223945 | 20 | 141 | 0.0 | 0.0 | 0.00 | 0.00 | 0.00 | 71 | 1021.2 |
| 20260902222947 | 21 | 141 | 0.0 | 0.0 | 0.00 | 0.00 | 0.00 | 70 | 1021.1 |
| 20260902221946 | 21 | 141 | 0.0 | 0.0 | 0.00 | 0.00 | 0.00 | 71 | 1021.1 |
| 20260902221445 | 21 | 141 | 0.0 | 3.2 | 0.00 | 0.00 | 0.00 | 73 | 1021.1 |
| 20260902215940 | 21 | 52 | 0.0 | 6.4 | 0.00 | 0.00 | 0.00 | 73 | 1021.1 |
| 20260902214944 | 21 | 52 | 0.0 | 8.0 | 0.00 | 0.03 | 0.00 | 72 | 1020.6 |
| 20260902214940 | 21 | 50 | 1.6 | 6.4 | 0.00 | 0.03 | 0.00 | 73 | 1020.8 |
| 20260902212940 | 22 | 102 | 0.0 | 6.4 | 0.00 | 0.03 | 0.00 | 71 | 1020.8 |
| 20260902211940 | 22 | 9 | 0.0 | 8.0 | 0.00 | 0.03 | 0.00 | 70 | 1021.1 |
| 20260902210939 | 22 | 88 | 0.0 | 6.4 | 0.00 | 0.03 | 0.00 | 68 | 1021.0 |
| 20260902205942 | 22 | 212 | 0.0 | 3.2 | 0.00 | 0.03 | 0.00 | 67 | 1021.0 |
| 20260902204939 | 23 | 121 | 0.0 | 1.6 | 0.00 | 0.03 | 0.00 | 63 | 1020.8 |
| 20260902203940 | 23 | 5 | 0.0 | 3.2 | 0.00 | 0.03 | 0.00 | 63 | 1021.1 |
| 20260902202934 | 23 | 119 | 0.0 | 1.6 | 0.00 | 0.03 | 0.00 | 66 | 1020.8 |
| 20260902201933 | 23 | 108 | 0.0 | 6.4 | 0.00 | 0.03 | 0.00 | 67 | 1020.9 |
| 20260902200934 | 23 | 27 | 1.6 | 11.3 | 0.00 | 0.03 | 0.00 | 67 | 1021.1 |
| 20260902195933 | 22 | 12 | 3.2 | 11.3 | 0.00 | 0.03 | 0.00 | 67 | 1021.2 |
| 20260902194933 | 22 | 70 | 3.2 | 12.9 | 0.00 | 0.03 | 0.00 | 67 | 1021.3 |
| 20260902193933 | 23 | 75 | 1.6 | 9.7 | 0.00 | 0.03 | 0.00 | 68 | 1021.3 |
| 20260902192933 | 23 | 79 | 0.0 | 6.4 | 0.00 | 0.03 | 0.00 | 67 | 1021.3 |
| 20260902191935 | 23 | 260 | 1.6 | 8.0 | 0.00 | 0.05 | 0.00 | 66 | 1021.3 |
| 20260902190935 | 23 | 60 | 1.6 | 9.7 | 0.00 | 0.05 | 0.00 | 67 | 1021.2 |
| 20260902185939 | 23 | 104 | 1.6 | 9.7 | 0.00 | 0.05 | 0.00 | 66 | 1021.1 |
| 20260902185934 | 23 | 121 | 1.6 | 8.0 | 0.00 | 0.05 | 0.00 | 68 | 1021.3 |
| 20260902183930 | 23 | 78 | 1.6 | 11.3 | 0.00 | 0.08 | 0.00 | 66 | 1021.1 |
| 20260902182934 | 23 | 108 | 1.6 | 9.7 | 0.00 | 0.13 | 0.00 | 67 | 1021.1 |
| 20260902181931 | 23 | 108 | 1.6 | 8.0 | 0.00 | 0.25 | 0.00 | 66 | 1021.2 |
| 20260902180938 | 23 | 129 | 1.6 | 8.0 | 0.00 | 0.25 | 0.00 | 67 | 1021.5 |
| 20260902180932 | 23 | 108 | 3.2 | 11.3 | 0.00 | 0.25 | 0.00 | 66 | 1021.4 |
| 20260902174932 | 23 | 99 | 1.6 | 8.0 | 0.00 | 0.25 | 0.00 | 68 | 1021.5 |
| 20260902174432 | 23 | 44 | 3.2 | 12.9 | 0.00 | 0.25 | 0.00 | 67 | 1021.4 |
| 20260902172932 | 23 | 86 | 1.6 | 9.7 | 0.00 | 0.25 | 0.00 | 67 | 1021.5 |
| 20260902171931 | 23 | 46 | 3.2 | 14.5 | 0.00 | 0.25 | 0.00 | 66 | 1021.5 |
| 20260902171448 | 23 | 44 | 1.6 | 12.9 | 0.00 | 0.25 | 0.00 | 67 | 1021.6 |
| 20260902165933 | 23 | 91 | 1.6 | 9.7 | 0.00 | 0.25 | 0.00 | 67 | 1021.6 |
| 20260902164933 | 23 | 75 | 3.2 | 9.7 | 0.00 | 0.25 | 0.00 | 66 | 1021.6 |
| 20260902163931 | 23 | 104 | 1.6 | 6.4 | 0.00 | 0.25 | 0.00 | 66 | 1021.7 |
| 20260902162932 | 23 | 74 | 1.6 | 9.7 | 0.00 | 0.25 | 0.00 | 67 | 1021.7 |
| 20260902161932 | 23 | 61 | 1.6 | 11.3 | 0.00 | 0.25 | 0.00 | 66 | 1021.9 |
| 20260902160925 | 23 | 172 | 0.0 | 3.2 | 0.00 | 0.25 | 0.00 | 67 | 1022.1 |
| 20260902155924 | 23 | 105 | 0.0 | 3.2 | 0.00 | 0.25 | 0.00 | 67 | 1022.2 |
| 20260902154926 | 22 | 205 | 0.0 | 4.8 | 0.00 | 0.25 | 0.00 | 68 | 1022.1 |
| 20260902153926 | 22 | 107 | 0.0 | 8.0 | 0.00 | 0.25 | 0.00 | 70 | 1022.1 |
| 20260902152926 | 22 | 103 | 1.6 | 14.5 | 0.00 | 0.25 | 0.00 | 71 | 1022.1 |